Simultaneous Nadir Overpasses (SNOs) Predictions

Prediction of SNOs between METOP-C and LANDSAT-8 Satellite Orbit:

Table of predicted SNOs for the next 14.0 days since TLE Epoch: 10/10/2020
Index Date (METOP-C) Time (METOP-C) Lat,Lon (METOP-C) SZA (METOP-C ) Date (LANDSAT-8) Time (LANDSAT-8) Lat,Lon (LANDSAT-8) SZA (LANDSAT-8 ) Distance(km) Time Diff (sec)
1 10/11/2020 17:49:13 81.07, -48.14 90.75 10/11/2020 17:49:48 81.07, -48.20 90.76 1.15 35
2 10/11/2020 18:39:53 -81.10, 119.89 89.15 10/11/2020 18:39:14 -81.09, 119.76 89.18 2.41 39
3 10/14/2020 13:23:38 81.07, 18.19 91.80 10/14/2020 13:24:03 81.08, 18.37 91.84 3.30 25
4 10/14/2020 14:14:18 -81.10,-173.75 88.09 10/14/2020 14:13:29 -81.10,-173.65 88.10 1.87 49
5 10/17/2020 08:58:02 81.08, 84.89 92.89 10/17/2020 08:58:18 81.09, 84.90 92.90 0.67 16
6 10/17/2020 09:48:42 -81.11,-107.02 87.01 10/17/2020 09:47:44 -81.11,-107.10 87.04 1.29 58
7 10/20/2020 04:32:27 81.06, 150.85 93.85 10/20/2020 04:32:33 81.07, 151.04 93.88 3.30 6
8 10/20/2020 05:23:07 -81.09, -41.04 86.04 10/20/2020 05:21:59 -81.09, -40.94 86.06 1.89 68
9 10/22/2020 23:16:12 -81.07, 50.03 85.15 10/22/2020 23:17:22 -81.07, 49.89 85.13 2.56 70
